W2EH Weather Reports


time (UTC)temp
C
wind
direction
speed
KPH
gust
KPH
rain 1hr
cm
rain 24hr
cm
rain mn
cm
humidity
%
barometer
mb
20260509213040 32 127 3.2 3.2 0.00 0.23 0.23 46 1007.2
20260509212537 32 142 0.0 3.2 0.00 0.23 0.23 48 1007.3
20260509212034 32 333 0.0 0.0 0.00 0.23 0.23 51 1007.4
20260509211530 31 310 0.0 3.2 0.00 0.23 0.23 51 1007.5
20260509211027 31 205 0.0 3.2 0.00 0.23 0.23 49 1007.5
20260509210524 31 125 3.2 4.8 0.00 0.23 0.23 51 1007.8
20260509210020 31 231 0.0 4.8 0.00 0.23 0.23 52 1007.6
20260509205514 31 202 4.8 6.4 0.00 0.23 0.23 49 1007.7
20260509205010 32 170 1.6 4.8 0.00 0.23 0.23 51 1007.7
20260509204506 32 157 0.0 3.2 0.00 0.23 0.23 48 1007.9
20260509204003 32 174 0.0 4.8 0.00 0.23 0.23 48 1008.0
20260509203459 31 326 0.0 1.6 0.00 0.23 0.23 50 1007.9
20260509202956 31 159 1.6 3.2 0.00 0.23 0.23 54 1008.1
20260509202452 31 133 4.8 6.4 0.00 0.23 0.23 54 1008.2
20260509201947 31 84 0.0 3.2 0.00 0.23 0.23 55 1008.2
20260509201443 31 108 0.0 3.2 0.00 0.23 0.23 54 1008.4
20260509200940 31 236 1.6 6.4 0.00 0.23 0.23 54 1008.7
20260509200440 31 25 0.0 3.2 0.00 0.23 0.23 59 1008.7
20260509195937 31 97 0.0 1.6 0.00 0.23 0.23 56 1008.7
20260509195433 30 226 1.6 3.2 0.00 0.23 0.23 54 1008.8
20260509194932 30 50 0.0 3.2 0.00 0.23 0.23 55 1008.7
20260509194428 30 196 0.0 1.6 0.00 0.23 0.23 59 1008.9
20260509193925 30 268 1.6 3.2 0.00 0.23 0.23 60 1008.9
20260509193425 30 216 4.8 8.0 0.00 0.23 0.23 58 1008.8
20260509192921 30 205 0.0 3.2 0.00 0.23 0.23 58 1008.8
20260509192417 29 15 0.0 1.6 0.00 0.23 0.23 61 1008.8
20260509191913 29 308 0.0 3.2 0.00 0.23 0.23 59 1008.8
20260509191408 28 6 1.6 3.2 0.00 0.23 0.23 64 1009.0
20260509190905 28 56 1.6 3.2 0.00 0.23 0.23 60 1009.1
20260509190402 28 319 1.6 3.2 0.00 0.23 0.23 70 1009.1
20260509185859 28 355 0.0 3.2 0.00 0.23 0.23 73 1009.3
20260509185356 28 333 0.0 3.2 0.00 0.23 0.23 72 1009.3
20260509184853 28 336 1.6 3.2 0.00 0.23 0.23 76 1009.3
20260509184350 27 89 0.0 3.2 0.00 0.23 0.23 78 1009.6
20260509183846 27 343 0.0 3.2 0.00 0.23 0.23 82 1009.6
20260509183342 26 66 0.0 0.0 0.00 0.23 0.23 84 1009.7
20260509182838 26 255 0.0 0.0 0.00 0.23 0.23 83 1009.8
20260509182335 26 235 0.0 0.0 0.00 0.23 0.23 85 1009.8
20260509181832 26 117 0.0 1.6 0.00 0.23 0.23 86 1009.6
20260509181329 25 212 0.0 0.0 0.00 0.23 0.23 87 1009.9
20260509180827 26 212 0.0 0.0 0.00 0.23 0.23 87 1009.9
20260509180323 26 212 0.0 0.0 0.00 0.23 0.23 87 1010.0
20260509175819 25 212 0.0 0.0 0.00 0.23 0.23 87 1010.2
20260509175316 26 25 0.0 1.6 0.00 0.23 0.23 87 1010.2
20260509174812 26 82 1.6 1.6 0.00 0.23 0.23 87 1010.1
20260509174308 26 44 0.0 0.0 0.00 0.23 0.23 90 1010.0
20260509173804 25 44 0.0 1.6 0.00 0.23 0.23 91 1010.1
20260509173259 25 75 0.0 0.0 0.00 0.23 0.23 91 1010.2
20260509172755 25 75 0.0 0.0 0.00 0.23 0.23 92 1010.1
20260509172253 25 75 0.0 0.0 0.00 0.23 0.23 92 1010.3
20260509171748 25 63 1.6 3.2 0.05 0.23 0.23 92 1010.2
20260509171244 25 310 0.0 1.6 0.23 0.23 0.23 92 1010.5
20260509170741 25 240 0.0 0.0 0.30 0.20 0.20 92 1010.5
20260509170237 25 76 0.0 0.0 0.18 0.18 0.18 91 1010.7
20260509165736 25 21 0.0 0.0 0.79 0.15 0.15 87 1010.5
20260509165231 25 130 0.0 3.2 0.84 0.15 0.15 85 1010.5
20260509164727 26 222 1.6 3.2 0.05 0.00 0.00 80 1010.5
20260509164223 26 205 1.6 4.8 0.00 0.00 0.00 77 1010.3
20260509163721 27 117 3.2 8.0 0.00 0.00 0.00 77 1010.2
20260509163217 27 146 4.8 9.7 0.00 0.00 0.00 77 1010.2
20260509162715 26 187 3.2 6.4 0.00 0.00 0.00 79 1010.3
20260509162210 26 165 3.2 6.4 0.00 0.00 0.00 77 1010.4
20260509161706 26 151 6.4 8.0 0.00 0.00 0.00 77 1010.4
20260509161202 26 126 1.6 4.8 0.00 0.00 0.00 77 1010.2
20260509160657 26 88 1.6 6.4 0.00 0.00 0.00 76 1010.1
20260509160153 27 122 1.6 6.4 0.00 0.00 0.00 76 1010.2
20260509155649 27 102 1.6 4.8 0.00 0.00 0.00 75 1010.2
20260509155146 27 127 3.2 4.8 0.00 0.00 0.00 74 1009.9
20260509154641 27 127 0.0 3.2 0.00 0.00 0.00 75 1010.2
20260509154138 27 104 0.0 1.6 0.00 0.00 0.00 74 1010.0
20260509153636 27 121 1.6 3.2 0.00 0.00 0.00 72 1009.9
20260509153132 28 217 0.0 1.6 0.00 0.00 0.00 70 1009.7
20260509152628 28 135 0.0 3.2 0.00 0.00 0.00 70 1009.6
20260509152126 28 284 1.6 3.2 0.00 0.00 0.00 69 1009.7
20260509151622 28 196 1.6 3.2 0.00 0.00 0.00 72 1009.5
20260509151120 27 116 0.0 3.2 0.00 0.00 0.00 75 1009.5
20260509150617 27 225 1.6 9.7 0.00 0.00 0.00 75 1009.6
20260509150115 27 212 0.0 8.0 0.00 0.00 0.00 74 1009.4
20260509145611 27 200 3.2 4.8 0.00 0.00 0.00 77 1009.4
20260509145106 27 163 0.0 4.8 0.00 0.00 0.00 77 1009.1
20260509144603 26 156 3.2 8.0 0.00 0.00 0.00 78 1009.2
20260509144100 26 160 6.4 8.0 0.00 0.00 0.00 78 1009.0
20260509143557 26 152 4.8 6.4 0.00 0.00 0.00 78 1009.0
20260509143055 26 192 3.2 6.4 0.00 0.00 0.00 79 1009.1
20260509142550 26 179 1.6 4.8 0.00 0.00 0.00 81 1008.9
20260509142046 25 166 4.8 8.0 0.00 0.00 0.00 80 1008.8
20260509141543 25 208 3.2 4.8 0.00 0.00 0.00 83 1009.0
20260509141040 25 217 1.6 4.8 0.00 0.00 0.00 84 1008.8
20260509140536 25 210 3.2 6.4 0.00 0.00 0.00 85 1008.8
20260509140035 24 213 4.8 8.0 0.00 0.00 0.00 86 1008.9
20260509135531 24 199 4.8 6.4 0.00 0.00 0.00 88 1009.0
20260509135029 23 135 3.2 6.4 0.00 0.00 0.00 88 1009.0
20260509134526 23 146 3.2 17.7 0.00 0.00 0.00 89 1008.8
20260509134024 23 136 3.2 8.0 0.00 0.00 0.00 90 1009.1
20260509133520 23 135 6.4 6.4 0.00 0.00 0.00 91 1008.8
20260509133018 23 135 1.6 9.7 0.00 0.00 0.00 92 1008.6
20260509132516 22 156 4.8 8.0 0.00 0.00 0.00 95 1009.0
20260509132014 22 144 6.4 6.4 0.00 0.00 0.00 96 1008.8
20260509131510 22 132 1.6 3.2 0.00 0.00 0.00 97 1008.8
20260509131007 22 111 3.2 4.8 0.00 0.00 0.00 97 1008.6
20260509130502 21 133 3.2 4.8 0.00 0.00 0.00 97 1008.8
20260509125959 21 85 1.6 3.2 0.00 0.00 0.00 97 1008.7
20260509125455 21 22 3.2 3.2 0.00 0.00 0.00 97 1008.7
20260509124951 21 66 0.0 3.2 0.00 0.00 0.00 97 1008.8
20260509124449 21 114 4.8 4.8 0.00 0.00 0.00 97 1009.0
20260509123946 21 128 0.0 3.2 0.00 0.00 0.00 97 1009.2
20260509123444 21 160 3.2 4.8 0.00 0.00 0.00 97 1008.8
20260509122939 21 219 3.2 3.2 0.00 0.00 0.00 97 1009.2
20260509122436 21 152 1.6 3.2 0.00 0.00 0.00 97 1009.2
20260509121933 21 232 1.6 3.2 0.00 0.00 0.00 97 1009.3
20260509121430 21 159 1.6 4.8 0.00 0.00 0.00 97 1009.4
20260509120928 21 135 0.0 3.2 0.00 0.00 0.00 97 1009.5
20260509120426 21 134 1.6 3.2 0.00 0.00 0.00 96 1009.3
20260509115924 21 157 3.2 3.2 0.00 0.00 0.00 96 1009.3
20260509115421 21 114 0.0 3.2 0.00 0.00 0.00 96 1009.7
20260509114918 21 19 0.0 3.2 0.00 0.00 0.00 96 1009.8
20260509114416 21 120 1.6 4.8 0.00 0.00 0.00 96 1009.9
20260509113916 21 62 1.6 3.2 0.00 0.00 0.00 96 1010.2
20260509113413 21 325 0.0 3.2 0.00 0.00 0.00 96 1010.0
20260509112909 21 105 3.2 3.2 0.00 0.00 0.00 96 1010.3
20260509112407 21 112 0.0 3.2 0.00 0.00 0.00 96 1010.2
20260509111903 21 51 0.0 3.2 0.00 0.00 0.00 96 1010.5
20260509111400 21 38 1.6 3.2 0.00 0.00 0.00 96 1010.3
20260509110858 21 223 0.0 4.8 0.00 0.00 0.00 96 1010.5
20260509110354 21 138 4.8 6.4 0.00 0.00 0.00 96 1010.4
20260509105852 21 84 0.0 3.2 0.00 0.00 0.00 96 1010.6
20260509105350 21 129 0.0 1.6 0.00 0.00 0.00 96 1010.7
20260509104847 21 343 0.0 0.0 0.00 0.00 0.00 96 1011.0
20260509104343 21 13 3.2 3.2 0.00 0.00 0.00 96 1010.6
20260509103841 21 95 0.0 3.2 0.00 0.00 0.00 96 1011.0
20260509103338 21 149 1.6 3.2 0.00 0.00 0.00 96 1011.3
20260509102837 21 83 0.0 3.2 0.00 0.00 0.00 96 1011.1
20260509102334 21 29 0.0 3.2 0.00 0.00 0.00 96 1010.4
20260509101829 21 29 0.0 1.6 0.00 0.00 0.00 96 1010.3
20260509101326 21 117 0.0 0.0 0.00 0.00 0.00 96 1010.4
20260509100824 21 118 0.0 0.0 0.00 0.00 0.00 96 1010.4
20260509100321 22 63 0.0 1.6 0.00 0.00 0.00 96 1010.5
20260509095817 22 135 1.6 1.6 0.00 0.00 0.00 96 1010.1
20260509095315 22 62 0.0 0.0 0.00 0.00 0.00 96 1010.1
20260509094812 22 38 0.0 3.2 0.00 0.00 0.00 96 1009.9
20260509094308 22 131 0.0 1.6 0.00 0.00 0.00 96 1010.2
20260509093806 21 50 0.0 0.0 0.00 0.00 0.00 95 1010.0
20260509093303 21 32 0.0 1.6 0.00 0.00 0.00 95 1009.7
20260509092801 21 58 0.0 0.0 0.00 0.00 0.00 95 1009.5
20260509092259 21 89 0.0 0.0 0.00 0.00 0.00 95 1009.4
20260509091757 21 115 1.6 1.6 0.00 0.00 0.00 95 1009.0
20260509091253 21 28 0.0 1.6 0.00 0.00 0.00 95 1009.1
20260509090751 21 58 0.0 1.6 0.00 0.00 0.00 95 1008.9
20260509090247 21 50 0.0 1.6 0.00 0.00 0.00 95 1009.2
20260509085745 22 147 0.0 1.6 0.00 0.00 0.00 95 1009.0
20260509085243 22 137 0.0 1.6 0.00 0.00 0.00 95 1009.1
20260509084739 22 132 0.0 3.2 0.00 0.00 0.00 95 1009.2
20260509084235 22 94 0.0 3.2 0.00 0.00 0.00 95 1009.5
20260509083734 22 121 1.6 3.2 0.00 0.00 0.00 94 1009.4
20260509083230 22 127 1.6 3.2 0.00 0.00 0.00 94 1009.6
20260509082727 22 49 0.0 0.0 0.00 0.00 0.00 94 1009.4
20260509082223 22 113 0.0 1.6 0.00 0.00 0.00 94 1009.7
20260509081720 22 124 0.0 1.6 0.00 0.00 0.00 94 1009.6
20260509081218 22 119 1.6 3.2 0.00 0.00 0.00 94 1009.5
20260509080716 22 118 1.6 3.2 0.00 0.00 0.00 93 1009.6
20260509080213 22 118 0.0 3.2 0.00 0.00 0.00 93 1009.5
20260509075711 22 119 0.0 1.6 0.00 0.00 0.00 93 1009.6
20260509075209 22 122 1.6 3.2 0.00 0.00 0.00 93 1009.7
20260509074705 22 95 0.0 0.0 0.00 0.00 0.00 93 1009.9
20260509074202 22 73 0.0 0.0 0.00 0.00 0.00 93 1009.9
20260509073659 22 96 1.6 1.6 0.00 0.00 0.00 93 1010.1
20260509073155 22 119 0.0 0.0 0.00 0.00 0.00 92 1010.0
20260509072652 22 62 0.0 1.6 0.00 0.00 0.00 92 1009.8
20260509072148 22 120 0.0 3.2 0.00 0.00 0.00 92 1010.4
20260509071645 22 143 1.6 4.8 0.00 0.00 0.00 92 1010.2
20260509071143 22 132 1.6 3.2 0.00 0.00 0.00 92 1010.1
20260509070639 22 95 0.0 6.4 0.00 0.00 0.00 92 1010.1
20260509070136 22 121 3.2 4.8 0.00 0.00 0.00 92 1009.9
20260509065632 22 149 3.2 4.8 0.00 0.00 0.00 92 1009.5
20260509065128 22 160 1.6 3.2 0.00 0.00 0.00 92 1009.7
20260509064625 22 135 3.2 4.8 0.00 0.00 0.00 92 1010.0
20260509064124 22 135 3.2 3.2 0.00 0.00 0.00 92 1009.7
20260509063620 22 142 1.6 3.2 0.00 0.00 0.00 92 1009.9
20260509063116 22 143 3.2 3.2 0.00 0.00 0.00 91 1009.7
20260509062614 22 126 0.0 3.2 0.00 0.00 0.00 91 1010.2
20260509062111 22 133 0.0 3.2 0.00 0.00 0.00 91 1010.0
20260509061607 22 147 0.0 3.2 0.00 0.00 0.00 91 1010.1
20260509061105 22 55 0.0 3.2 0.00 0.00 0.00 91 1009.9
20260509060603 22 112 3.2 3.2 0.00 0.00 0.00 91 1009.9
20260509060058 22 122 1.6 1.6 0.00 0.00 0.00 91 1009.9
20260509055554 22 111 1.6 4.8 0.00 0.00 0.00 92 1010.2
20260509055050 22 114 0.0 4.8 0.00 0.00 0.00 92 1010.0
20260509054547 22 122 3.2 3.2 0.00 0.00 0.00 92 1009.6
20260509054045 22 146 1.6 4.8 0.00 0.00 0.00 92 1009.2
20260509053543 22 68 0.0 1.6 0.00 0.00 0.00 92 1009.1
20260509053039 22 119 0.0 3.2 0.00 0.00 0.00 92 1008.8
20260509052538 22 89 1.6 3.2 0.00 0.00 0.00 93 1008.6
20260509052035 22 89 0.0 1.6 0.00 0.00 0.00 93 1008.8
20260509051533 22 111 0.0 1.6 0.00 0.00 0.00 93 1008.9
20260509051030 22 89 0.0 1.6 0.00 0.00 0.00 93 1008.7
20260509050526 21 130 0.0 0.0 0.00 0.00 0.00 92 1008.6
20260509050023 21 89 0.0 1.6 0.00 0.00 0.00 92 1008.3
20260509045520 21 107 1.6 1.6 0.00 0.00 0.00 92 1008.5
20260509045017 21 139 0.0 1.6 0.00 0.00 0.00 92 1008.4
20260509044515 21 122 1.6 3.2 0.00 0.00 0.00 93 1008.7
20260509044012 21 129 1.6 3.2 0.00 0.00 0.00 93 1008.7
20260509043508 21 89 0.0 1.6 0.00 0.00 0.00 93 1008.9
20260509043004 21 55 0.0 1.6 0.00 0.00 0.00 93 1008.9
20260509042500 21 89 0.0 0.0 0.00 0.00 0.00 93 1009.1
20260509041956 21 117 0.0 1.6 0.00 0.00 0.00 93 1008.9
20260509041453 21 116 0.0 1.6 0.00 0.00 0.00 93 1009.1
20260509040951 21 123 0.0 3.2 0.00 0.00 0.00 93 1009.0
20260509040449 21 124 0.0 1.6 0.00 0.00 0.00 93 1009.0
20260509035946 21 119 0.0 3.2 0.00 0.00 0.00 93 1009.1
20260509035442 21 111 1.6 3.2 0.00 0.00 0.00 93 1009.2
20260509034939 21 107 0.0 1.6 0.00 0.00 0.00 93 1009.2
20260509034437 21 142 0.0 0.0 0.00 0.00 0.00 92 1009.2
20260509033934 21 107 0.0 1.6 0.00 0.00 0.00 92 1008.9
20260509033431 21 113 0.0 1.6 0.00 0.00 0.00 92 1009.1
20260509032927 21 107 0.0 1.6 0.00 0.00 0.00 92 1008.9
20260509032425 21 62 0.0 0.0 0.00 0.00 0.00 92 1008.7
20260509031923 21 37 0.0 0.0 0.00 0.00 0.00 92 1008.5
20260509031420 21 89 0.0 1.6 0.00 0.00 0.00 92 1008.7
20260509030917 21 134 0.0 3.2 0.00 0.00 0.00 92 1008.5
20260509030415 21 115 1.6 3.2 0.00 0.00 0.00 92 1008.4
20260509025912 21 119 1.6 3.2 0.00 0.00 0.00 91 1008.5
20260509025408 21 129 0.0 1.6 0.00 0.00 0.00 91 1008.5
20260509024903 21 130 1.6 3.2 0.00 0.00 0.00 91 1008.4
20260509024359 21 121 1.6 3.2 0.00 0.00 0.00 90 1008.2
20260509023856 21 120 1.6 3.2 0.00 0.00 0.00 90 1008.3
20260509023354 22 123 1.6 3.2 0.00 0.00 0.00 90 1008.5
20260509022850 22 122 0.0 1.6 0.00 0.00 0.00 89 1008.3
20260509022347 22 117 0.0 1.6 0.00 0.00 0.00 89 1008.5
20260509021844 22 101 1.6 1.6 0.00 0.00 0.00 88 1008.3
20260509021341 22 89 0.0 1.6 0.00 0.00 0.00 88 1008.2
20260509020839 22 89 0.0 0.0 0.00 0.00 0.00 87 1008.3
20260509020337 22 132 0.0 1.6 0.00 0.00 0.00 87 1008.1
20260509015834 22 89 0.0 0.0 0.00 0.00 0.00 87 1008.1
20260509015332 22 95 0.0 1.6 0.00 0.00 0.00 86 1007.9
20260509014828 23 72 0.0 1.6 0.00 0.00 0.00 86 1007.9
20260509014325 23 89 0.0 1.6 0.00 0.00 0.00 85 1007.8
20260509013822 23 117 0.0 1.6 0.00 0.00 0.00 85 1007.8
20260509013319 23 55 0.0 1.6 0.00 0.00 0.00 84 1007.8
20260509012815 23 107 0.0 3.2 0.00 0.00 0.00 84 1007.4
20260509012312 23 124 0.0 1.6 0.00 0.00 0.00 84 1007.7
20260509011809 23 133 3.2 3.2 0.00 0.00 0.00 83 1007.7
20260509011306 23 25 0.0 3.2 0.00 0.00 0.00 83 1007.7
20260509010804 23 124 1.6 3.2 0.00 0.00 0.00 83 1007.7
20260509010300 23 142 0.0 1.6 0.00 0.00 0.00 83 1007.7
20260509005758 23 150 1.6 1.6 0.00 0.00 0.00 82 1007.8
20260509005256 23 134 0.0 3.2 0.00 0.00 0.00 82 1007.6
20260509004755 23 142 0.0 1.6 0.00 0.00 0.00 82 1007.7
20260509004252 23 112 0.0 3.2 0.00 0.00 0.00 82 1007.7
20260509003750 23 107 1.6 3.2 0.00 0.00 0.00 82 1007.6
20260509003248 23 124 0.0 3.2 0.00 0.00 0.00 82 1007.6
20260509002745 23 129 0.0 1.6 0.00 0.00 0.00 82 1007.7
20260509002242 23 118 0.0 1.6 0.00 0.00 0.00 82 1007.7
20260509001740 23 66 0.0 0.0 0.00 0.00 0.00 82 1007.7
20260509001235 23 120 3.2 3.2 0.00 0.00 0.00 82 1007.5
20260509000734 23 89 0.0 0.0 0.00 0.00 0.00 82 1007.9
20260509000231 23 104 0.0 1.6 0.00 0.00 0.00 81 1007.7
20260508235727 23 269 0.0 1.6 0.00 0.00 0.00 81 1007.8
20260508235224 24 44 0.0 1.6 0.00 0.00 0.00 81 1007.6
20260508234722 24 142 0.0 1.6 0.00 0.00 0.00 81 1007.9
20260508234218 24 17 0.0 1.6 0.00 0.00 0.00 80 1008.1
20260508233717 24 50 0.0 1.6 0.00 0.00 0.00 80 1007.6
20260508233215 24 299 0.0 1.6 0.00 0.00 0.00 80 1007.6
20260508232712 24 37 1.6 1.6 0.00 0.00 0.00 80 1007.7
20260508232208 24 124 0.0 0.0 0.00 0.00 0.00 79 1007.9
20260508231707 25 135 0.0 1.6 0.00 0.00 0.00 80 1007.6
20260508231203 25 117 0.0 3.2 0.00 0.00 0.00 79 1007.7
20260508230700 25 117 0.0 3.2 0.00 0.00 0.00 79 1007.6
20260508230156 25 106 0.0 3.2 0.00 0.00 0.00 79 1007.9
20260508225654 25 89 0.0 1.6 0.00 0.00 0.00 79 1007.6
20260508225150 25 62 0.0 1.6 0.00 0.00 0.00 79 1007.9
20260508224648 24 142 0.0 1.6 0.00 0.00 0.00 78 1007.8
20260508224145 25 115 1.6 3.2 0.00 0.00 0.00 78 1007.7
20260508223643 25 178 0.0 3.2 0.00 0.00 0.00 77 1007.9
20260508223140 25 117 0.0 1.6 0.00 0.00 0.00 77 1007.6
20260508222637 25 119 0.0 1.6 0.00 0.00 0.00 77 1007.8
20260508222134 25 151 1.6 1.6 0.00 0.00 0.00 76 1007.8
20260508221630 25 132 0.0 3.2 0.00 0.00 0.00 75 1007.9
20260508221126 25 142 1.6 3.2 0.00 0.00 0.00 75 1007.8
20260508220623 25 126 0.0 3.2 0.00 0.00 0.00 75 1008.0
20260508220120 25 251 0.0 1.6 0.00 0.00 0.00 74 1008.1
20260508215616 26 6 1.6 3.2 0.00 0.00 0.00 72 1007.9
20260508215113 26 269 0.0 3.2 0.00 0.00 0.00 74 1007.8
20260508214610 25 1 0.0 3.2 0.00 0.00 0.00 74 1007.9
20260508214107 26 117 0.0 4.8 0.00 0.00 0.00 72 1008.1
20260508213604 26 155 3.2 3.2 0.00 0.00 0.00 72 1008.1